GSAT-16 (40332 NORAD) Tracking and Keplerian Element Data

This shows tracking and keplerian element data for the satellite.

Feedback or suggestion? Click here.




ElementValue
Catalog40332
NameGSAT-16
Epoch Orbit1951
Epoch Day92.08592265
Epoch Year2020
RAAN171.1673
Inclination0.0121
Eccentricity0.0005007
Argument of Perigee267.5101
Mean Anonmoly197.2175
Mean Motion1.00272658
Decay Rate8.1E-07
L11 40332U 14078A 20092.08592265 .00000081 00000-0 00000+0 0 9990
L22 40332 0.0121 171.1673 0005007 267.5101 197.2175 1.00272658 19517

Live tracking and technical data element details for GSAT-16 (NORAD 40332). GSAT-16 can be tracked NOW for your location showing map with azimuth and elevation plus other details from your city location.

Track the satellite on the map from your city or location and see movement details for azimuth, elevation, latitude, longitude, range, height, and movement on the map or in text.







IsCatalogInMostPopularTable: catalog: 40332, numindb: 336
Update: records affected: 1



GetName: 40332 GSAT-16

Hit Count: updated at: Fri, 03 Apr 2020 07:55:10 GMT